Time,TemperatureF,DewpointF,PressureIn,WindDirection,WindDirectionDegrees,WindSpeedMPH,WindSpeedGustMPH,Humidity,HourlyPrecipIn,Conditions,Clouds,dailyrainin,SoftwareType,DateUTC
2013-08-24 00:00:00,58.6,57.8,30.09,SE,138,0.0,0.0,97,0.00,,,0.00,Wunderground v.1.15,2013-08-24 04:00:00,
2013-08-24 00:01:00,58.5,57.7,30.09,SE,138,0.0,0.0,97,0.00,,,0.00,Wunderground v.1.15,2013-08-24 04:01:00,
2013-08-24 00:02:00,58.5,57.7,30.09,SE,139,0.0,0.0,97,0.00,,,0.00,Wunderground v.1.15,2013-08-24 04:02:00,
2013-08-24 00:03:00,58.4,57.6,30.09,SE,138,0.0,0.0,97,0.00,,,0.00,Wunderground v.1.15,2013-08-24 04:03:00,
2013-08-24 00:06:00,58.3,57.5,30.09,SE,138,0.0,0.0,97,0.00,,,0.00,Wunderground v.1.15,2013-08-24 04:06:00,
2013-08-24 00:10:00,58.3,57.5,30.09,SE,138,0.0,0.0,97,0.00,,,0.00,Wunderground v.1.15,2013-08-24 04:10:00,
2013-08-24 00:16:00,58.3,57.5,30.10,SE,138,0.0,0.0,97,0.00,,,0.00,Wunderground v.1.15,2013-08-24 04:16:00,
2013-08-24 00:22:00,58.2,57.4,30.09,SE,139,0.0,0.0,97,0.00,,,0.00,Wunderground v.1.15,2013-08-24 04:22:00,
2013-08-24 00:28:00,58.1,57.3,30.10,SE,139,0.0,0.0,97,0.00,,,0.00,Wunderground v.1.15,2013-08-24 04:28:00,
2013-08-24 00:33:00,58.1,57.3,30.10,SE,139,0.0,0.0,97,0.00,,,0.00,Wunderground v.1.15,2013-08-24 04:33:00,
2013-08-24 00:39:00,58.0,57.2,30.10,SE,138,0.0,0.0,97,0.00,,,0.00,Wunderground v.1.15,2013-08-24 04:39:00,
2013-08-24 00:45:00,58.1,57.3,30.10,SE,139,0.0,0.0,97,0.00,,,0.00,Wunderground v.1.15,2013-08-24 04:45:00,
2013-08-24 00:51:00,58.1,57.3,30.10,SE,138,0.0,0.0,97,0.00,,,0.00,Wunderground v.1.15,2013-08-24 04:51:00,
2013-08-24 00:56:00,58.2,57.4,30.10,SE,139,0.0,0.0,97,0.00,,,0.00,Wunderground v.1.15,2013-08-24 04:56:00,
2013-08-24 01:02:00,58.1,57.3,30.10,SE,139,0.0,0.0,97,0.00,,,0.00,Wunderground v.1.15,2013-08-24 05:02:00,
2013-08-24 01:08:00,58.1,57.3,30.11,SE,138,0.0,0.0,97,0.00,,,0.00,Wunderground v.1.15,2013-08-24 05:08:00,
2013-08-24 01:13:00,57.9,57.1,30.10,SE,139,0.0,0.0,97,0.00,,,0.00,Wunderground v.1.15,2013-08-24 05:13:00,
2013-08-24 01:19:00,57.7,56.9,30.11,SE,138,0.0,0.0,97,0.00,,,0.00,Wunderground v.1.15,2013-08-24 05:19:00,
2013-08-24 01:25:00,57.5,56.7,30.11,SE,138,0.0,0.0,97,0.00,,,0.00,Wunderground v.1.15,2013-08-24 05:25:00,
2013-08-24 01:31:00,57.4,56.6,30.11,SE,138,0.0,0.0,97,0.00,,,0.00,Wunderground v.1.15,2013-08-24 05:31:00,
2013-08-24 01:37:00,57.2,56.4,30.10,SE,134,0.0,0.0,97,0.00,,,0.00,Wunderground v.1.15,2013-08-24 05:37:00,
2013-08-24 01:43:00,57.1,56.3,30.10,NNE,12,0.0,2.0,97,0.00,,,0.00,Wunderground v.1.15,2013-08-24 05:43:00,
2013-08-24 01:49:00,57.2,56.4,30.11,NW,316,1.0,2.0,97,0.00,,,0.00,Wunderground v.1.15,2013-08-24 05:49:00,
2013-08-24 01:55:00,57.1,56.3,30.11,NNW,328,0.0,1.0,97,0.00,,,0.00,Wunderground v.1.15,2013-08-24 05:55:00,
2013-08-24 02:01:00,56.8,56.0,30.11,NNW,327,0.0,0.0,97,0.00,,,0.00,Wunderground v.1.15,2013-08-24 06:01:00,
2013-08-24 02:07:00,56.6,55.8,30.11,NNW,328,0.0,0.0,97,0.00,,,0.00,Wunderground v.1.15,2013-08-24 06:07:00,
2013-08-24 02:13:00,56.4,55.6,30.11,NNW,328,0.0,0.0,97,0.00,,,0.00,Wunderground v.1.15,2013-08-24 06:13:00,
2013-08-24 02:19:00,56.1,55.3,30.12,NNW,328,0.0,0.0,97,0.00,,,0.00,Wunderground v.1.15,2013-08-24 06:19:00,
2013-08-24 02:25:00,55.9,55.1,30.12,NNW,328,0.0,0.0,97,0.00,,,0.00,Wunderground v.1.15,2013-08-24 06:25:00,
2013-08-24 02:31:00,55.5,54.7,30.12,NNW,327,0.0,0.0,97,0.00,,,0.00,Wunderground v.1.15,2013-08-24 06:31:00,
2013-08-24 02:37:00,55.4,54.6,30.12,NNW,338,0.0,0.0,97,0.00,,,0.00,Wunderground v.1.15,2013-08-24 06:37:00,
2013-08-24 02:43:00,55.3,54.5,30.13,NNW,338,0.0,0.0,97,0.00,,,0.00,Wunderground v.1.15,2013-08-24 06:43:00,
2013-08-24 02:49:00,55.2,54.4,30.13,NNW,338,0.0,0.0,97,0.00,,,0.00,Wunderground v.1.15,2013-08-24 06:49:00,
2013-08-24 02:54:00,55.1,54.3,30.13,NNW,338,0.0,0.0,97,0.00,,,0.00,Wunderground v.1.15,2013-08-24 06:54:00,
2013-08-24 02:59:00,54.8,54.0,30.13,NNW,338,0.0,0.0,97,0.00,,,0.00,Wunderground v.1.15,2013-08-24 06:59:00,
2013-08-24 03:05:00,54.7,53.9,30.14,NNW,338,0.0,0.0,97,0.00,,,0.00,Wunderground v.1.15,2013-08-24 07:05:00,
2013-08-24 03:10:00,54.5,53.7,30.14,NNW,338,0.0,0.0,97,0.00,,,0.00,Wunderground v.1.15,2013-08-24 07:10:00,
2013-08-24 03:16:00,54.3,53.5,30.14,NNW,338,0.0,0.0,97,0.00,,,0.00,Wunderground v.1.15,2013-08-24 07:16:00,
2013-08-24 03:22:00,54.0,53.2,30.14,NNW,338,0.0,0.0,97,0.00,,,0.00,Wunderground v.1.15,2013-08-24 07:22:00,
2013-08-24 03:28:00,53.9,53.1,30.14,NNW,337,0.0,0.0,97,0.00,,,0.00,Wunderground v.1.15,2013-08-24 07:28:00,
2013-08-24 03:34:00,54.0,53.2,30.14,NNW,338,0.0,0.0,97,0.00,,,0.00,Wunderground v.1.15,2013-08-24 07:34:00,
2013-08-24 03:40:00,54.0,53.2,30.14,NNE,17,0.0,0.0,97,0.00,,,0.00,Wunderground v.1.15,2013-08-24 07:40:00,
2013-08-24 03:45:00,54.1,53.3,30.14,NNE,16,0.0,1.0,97,0.00,,,0.00,Wunderground v.1.15,2013-08-24 07:45:00,
2013-08-24 03:51:00,53.9,53.1,30.15,NNE,16,0.0,0.0,97,0.00,,,0.00,Wunderground v.1.15,2013-08-24 07:51:00,
2013-08-24 03:57:00,54.1,53.3,30.15,North,356,0.0,0.0,97,0.00,,,0.00,Wunderground v.1.15,2013-08-24 07:57:00,
2013-08-24 04:03:00,54.2,53.4,30.15,NNE,23,0.0,0.0,97,0.00,,,0.00,Wunderground v.1.15,2013-08-24 08:03:00,
2013-08-24 04:09:00,54.3,53.5,30.15,North,5,0.0,0.0,97,0.00,,,0.00,Wunderground v.1.15,2013-08-24 08:09:00,
2013-08-24 04:14:00,54.3,53.5,30.15,North,5,0.0,0.0,97,0.00,,,0.00,Wunderground v.1.15,2013-08-24 08:14:00,
2013-08-24 04:20:00,54.4,53.6,30.16,NNW,331,0.0,0.0,97,0.00,,,0.00,Wunderground v.1.15,2013-08-24 08:20:00,
2013-08-24 04:25:00,54.3,53.5,30.16,WSW,240,0.0,0.0,97,0.00,,,0.00,Wunderground v.1.15,2013-08-24 08:25:00,
2013-08-24 04:31:00,54.6,53.8,30.16,North,356,0.0,0.0,97,0.00,,,0.00,Wunderground v.1.15,2013-08-24 08:31:00,
2013-08-24 04:37:00,54.7,53.6,30.17,North,350,0.0,0.0,96,0.00,,,0.00,Wunderground v.1.15,2013-08-24 08:37:00,
2013-08-24 04:43:00,54.6,53.2,30.17,North,357,0.0,0.0,95,0.00,,,0.00,Wunderground v.1.15,2013-08-24 08:43:00,
2013-08-24 04:49:00,54.7,53.3,30.17,NE,54,0.0,1.0,95,0.00,,,0.00,Wunderground v.1.15,2013-08-24 08:49:00,
2013-08-24 04:55:00,55.1,53.7,30.17,NNW,340,1.0,2.0,95,0.00,,,0.00,Wunderground v.1.15,2013-08-24 08:55:00,
2013-08-24 05:01:00,55.6,53.6,30.17,NW,311,1.0,2.0,93,0.00,,,0.00,Wunderground v.1.15,2013-08-24 09:01:00,
2013-08-24 05:06:00,55.7,53.4,30.17,North,5,1.0,2.0,92,0.00,,,0.00,Wunderground v.1.15,2013-08-24 09:06:00,
2013-08-24 05:11:00,55.9,53.3,30.18,NE,36,1.0,1.0,91,0.00,,,0.00,Wunderground v.1.15,2013-08-24 09:11:00,
2013-08-24 05:16:00,56.0,53.4,30.18,NNE,24,1.0,4.0,91,0.00,,,0.00,Wunderground v.1.15,2013-08-24 09:16:00,
2013-08-24 05:21:00,56.4,53.2,30.18,NNE,22,2.0,2.0,89,0.00,,,0.00,Wunderground v.1.15,2013-08-24 09:21:00,
2013-08-24 05:27:00,56.9,53.1,30.18,NNE,18,2.0,4.0,87,0.00,,,0.00,Wunderground v.1.15,2013-08-24 09:27:00,
2013-08-24 05:33:00,57.1,53.0,30.18,NNW,330,3.0,3.0,86,0.00,,,0.00,Wunderground v.1.15,2013-08-24 09:33:00,
2013-08-24 05:39:00,57.1,53.0,30.19,North,356,2.0,3.0,86,0.00,,,0.00,Wunderground v.1.15,2013-08-24 09:39:00,
2013-08-24 05:45:00,56.9,52.8,30.19,North,8,2.0,4.0,86,0.00,,,0.00,Wunderground v.1.15,2013-08-24 09:45:00,
2013-08-24 05:50:00,57.0,52.9,30.19,North,4,2.0,2.0,86,0.00,,,0.00,Wunderground v.1.15,2013-08-24 09:50:00,
2013-08-24 05:56:00,56.8,52.7,30.19,NNE,22,2.0,4.0,86,0.00,,,0.00,Wunderground v.1.15,2013-08-24 09:56:00,
2013-08-24 06:02:00,56.8,52.7,30.20,North,360,1.0,2.0,86,0.00,,,0.00,Wunderground v.1.15,2013-08-24 10:02:00,
2013-08-24 06:08:00,56.7,52.6,30.20,NNE,22,1.0,2.0,86,0.00,,,0.00,Wunderground v.1.15,2013-08-24 10:08:00,
2013-08-24 06:14:00,56.6,52.5,30.20,NNW,347,1.0,2.0,86,0.00,,,0.00,Wunderground v.1.15,2013-08-24 10:14:00,
2013-08-24 06:20:00,56.5,52.4,30.21,North,356,1.0,2.0,86,0.00,,,0.00,Wunderground v.1.15,2013-08-24 10:20:00,
2013-08-24 06:26:00,56.6,52.5,30.21,NNW,333,1.0,4.0,86,0.00,,,0.00,Wunderground v.1.15,2013-08-24 10:26:00,
2013-08-24 06:32:00,56.2,52.4,30.21,NW,324,1.0,1.0,87,0.00,,,0.00,Wunderground v.1.15,2013-08-24 10:32:00,
2013-08-24 06:37:00,56.0,52.5,30.21,NNE,17,0.0,1.0,88,0.00,,,0.00,Wunderground v.1.15,2013-08-24 10:37:00,
2013-08-24 06:43:00,55.8,52.6,30.22,NNE,17,0.0,0.0,89,0.00,,,0.00,Wunderground v.1.15,2013-08-24 10:43:00,
2013-08-24 06:49:00,55.6,52.7,30.22,NE,39,0.0,0.0,90,0.00,,,0.00,Wunderground v.1.15,2013-08-24 10:49:00,
2013-08-24 06:55:00,55.9,52.7,30.22,NNW,346,0.0,2.0,89,0.00,,,0.00,Wunderground v.1.15,2013-08-24 10:55:00,
2013-08-24 07:01:00,56.1,52.9,30.22,North,6,0.0,0.0,89,0.00,,,0.00,Wunderground v.1.15,2013-08-24 11:01:00,
2013-08-24 07:07:00,57.2,54.0,30.22,NNW,346,0.0,0.0,89,0.00,,,0.00,Wunderground v.1.15,2013-08-24 11:07:00,
2013-08-24 07:12:00,58.1,54.2,30.22,NW,319,0.0,1.0,87,0.00,,,0.00,Wunderground v.1.15,2013-08-24 11:12:00,
2013-08-24 07:18:00,59.2,55.0,30.23,North,1,0.0,1.0,86,0.00,,,0.00,Wunderground v.1.15,2013-08-24 11:18:00,
2013-08-24 07:24:00,60.1,54.6,30.23,NW,316,0.0,3.0,82,0.00,,,0.00,Wunderground v.1.15,2013-08-24 11:24:00,
2013-08-24 07:30:00,60.8,54.9,30.23,West,276,1.0,1.0,81,0.00,,,0.00,Wunderground v.1.15,2013-08-24 11:30:00,
2013-08-24 07:35:00,61.4,54.8,30.23,ENE,59,1.0,3.0,79,0.00,,,0.00,Wunderground v.1.15,2013-08-24 11:35:00,
2013-08-24 07:40:00,61.7,54.4,30.23,ENE,58,2.0,3.0,77,0.00,,,0.00,Wunderground v.1.15,2013-08-24 11:40:00,
2013-08-24 07:46:00,62.2,55.3,30.24,NNE,27,2.0,3.0,78,0.00,,,0.00,Wunderground v.1.15,2013-08-24 11:46:00,
2013-08-24 07:51:00,62.8,55.1,30.24,North,356,2.0,4.0,76,0.00,,,0.00,Wunderground v.1.15,2013-08-24 11:51:00,
2013-08-24 07:56:00,63.0,54.9,30.24,ENE,65,2.0,5.0,75,0.00,,,0.00,Wunderground v.1.15,2013-08-24 11:56:00,
2013-08-24 08:02:00,63.3,54.9,30.24,NE,49,3.0,3.0,74,0.00,,,0.00,Wunderground v.1.15,2013-08-24 12:02:00,
2013-08-24 08:07:00,63.6,55.2,30.24,NNE,23,3.0,4.0,74,0.00,,,0.00,Wunderground v.1.15,2013-08-24 12:07:00,
2013-08-24 08:12:00,63.8,55.4,30.24,ENE,60,4.0,6.0,74,0.00,,,0.00,Wunderground v.1.15,2013-08-24 12:12:00,
2013-08-24 08:17:00,64.1,55.3,30.24,NNE,23,4.0,6.0,73,0.00,,,0.00,Wunderground v.1.15,2013-08-24 12:17:00,
2013-08-24 08:29:00,64.6,55.4,30.25,NE,45,4.0,4.0,72,0.00,,,0.00,Wunderground v.1.15,2013-08-24 12:29:00,
2013-08-24 08:35:00,65.0,55.8,30.25,NE,56,3.0,5.0,72,0.00,,,0.00,Wunderground v.1.15,2013-08-24 12:35:00,
2013-08-24 08:40:00,65.4,56.1,30.25,ENE,77,3.0,3.0,72,0.00,,,0.00,Wunderground v.1.15,2013-08-24 12:40:00,
2013-08-24 08:46:00,65.9,55.8,30.25,East,86,3.0,7.0,70,0.00,,,0.00,Wunderground v.1.15,2013-08-24 12:46:00,
2013-08-24 08:52:00,65.9,55.4,30.25,ENE,72,4.0,4.0,69,0.00,,,0.00,Wunderground v.1.15,2013-08-24 12:52:00,
2013-08-24 08:58:00,66.2,56.1,30.25,East,84,5.0,9.0,70,0.00,,,0.00,Wunderground v.1.15,2013-08-24 12:58:00,
2013-08-24 09:04:00,66.6,55.7,30.25,ENE,60,5.0,8.0,68,0.00,,,0.00,Wunderground v.1.15,2013-08-24 13:04:00,
2013-08-24 09:10:00,66.7,56.2,30.25,NE,51,5.0,6.0,69,0.00,,,0.00,Wunderground v.1.15,2013-08-24 13:10:00,
2013-08-24 09:16:00,67.3,56.8,30.25,East,80,4.0,6.0,69,0.00,,,0.00,Wunderground v.1.15,2013-08-24 13:16:00,
2013-08-24 09:22:00,67.9,57.4,30.25,NNW,335,3.0,8.0,69,0.00,,,0.00,Wunderground v.1.15,2013-08-24 13:22:00,
2013-08-24 09:27:00,67.9,56.1,30.25,NNE,31,4.0,9.0,66,0.00,,,0.00,Wunderground v.1.15,2013-08-24 13:27:00,
2013-08-24 09:33:00,68.3,56.5,30.26,NE,47,5.0,9.0,66,0.00,,,0.00,Wunderground v.1.15,2013-08-24 13:33:00,
2013-08-24 09:39:00,68.9,57.1,30.26,North,360,4.0,9.0,66,0.00,,,0.00,Wunderground v.1.15,2013-08-24 13:39:00,
2013-08-24 09:45:00,69.5,56.3,30.26,ENE,74,3.0,9.0,63,0.00,,,0.00,Wunderground v.1.15,2013-08-24 13:45:00,
2013-08-24 09:51:00,70.1,55.6,30.26,ENE,58,3.0,9.0,60,0.00,,,0.00,Wunderground v.1.15,2013-08-24 13:51:00,
2013-08-24 09:56:00,69.8,56.6,30.26,ENE,58,4.0,9.0,63,0.00,,,0.00,Wunderground v.1.15,2013-08-24 13:56:00,
2013-08-24 10:02:00,69.5,54.5,30.26,South,176,5.0,9.0,59,0.00,,,0.00,Wunderground v.1.15,2013-08-24 14:02:00,
2013-08-24 10:07:00,69.7,54.7,30.27,ENE,61,6.0,9.0,59,0.00,,,0.00,Wunderground v.1.15,2013-08-24 14:07:00,
2013-08-24 10:13:00,70.2,55.7,30.26,ENE,67,4.0,9.0,60,0.00,,,0.00,Wunderground v.1.15,2013-08-24 14:13:00,
2013-08-24 10:19:00,70.8,54.8,30.26,NNE,30,4.0,9.0,57,0.00,,,0.00,Wunderground v.1.15,2013-08-24 14:19:00,
2013-08-24 10:25:00,70.8,54.3,30.26,NE,36,5.0,10.0,56,0.00,,,0.00,Wunderground v.1.15,2013-08-24 14:25:00,
2013-08-24 10:31:00,70.8,53.8,30.27,NE,39,6.0,9.0,55,0.00,,,0.00,Wunderground v.1.15,2013-08-24 14:31:00,
2013-08-24 10:37:00,71.5,55.9,30.27,NNE,25,5.0,9.0,58,0.00,,,0.00,Wunderground v.1.15,2013-08-24 14:37:00,
2013-08-24 10:43:00,71.8,54.3,30.27,SSE,148,4.0,10.0,54,0.00,,,0.00,Wunderground v.1.15,2013-08-24 14:43:00,
2013-08-24 10:49:00,72.2,54.6,30.27,NE,47,4.0,10.0,54,0.00,,,0.00,Wunderground v.1.15,2013-08-24 14:49:00,
2013-08-24 10:55:00,72.0,54.4,30.27,NE,50,5.0,9.0,54,0.00,,,0.00,Wunderground v.1.15,2013-08-24 14:55:00,
2013-08-24 11:01:00,72.1,54.0,30.27,NNE,33,6.0,9.0,53,0.00,,,0.00,Wunderground v.1.15,2013-08-24 15:01:00,
2013-08-24 11:07:00,72.0,53.9,30.27,NE,41,6.0,9.0,53,0.00,,,0.00,Wunderground v.1.15,2013-08-24 15:07:00,
2013-08-24 11:12:00,72.1,54.5,30.27,NE,41,5.0,7.0,54,0.00,,,0.00,Wunderground v.1.15,2013-08-24 15:12:00,
2013-08-24 11:18:00,72.2,53.6,30.27,NNE,20,6.0,11.0,52,0.00,,,0.00,Wunderground v.1.15,2013-08-24 15:18:00,
2013-08-24 11:24:00,72.6,55.5,30.27,ENE,67,6.0,10.0,55,0.00,,,0.00,Wunderground v.1.15,2013-08-24 15:24:00,
2013-08-24 11:29:00,73.1,54.4,30.26,East,90,5.0,10.0,52,0.00,,,0.00,Wunderground v.1.15,2013-08-24 15:29:00,
2013-08-24 11:35:00,73.2,54.0,30.26,North,352,5.0,7.0,51,0.00,,,0.00,Wunderground v.1.15,2013-08-24 15:35:00,
2013-08-24 11:41:00,73.3,54.1,30.26,NNE,16,6.0,6.0,51,0.00,,,0.00,Wunderground v.1.15,2013-08-24 15:41:00,
2013-08-24 11:47:00,73.7,53.3,30.27,North,5,6.0,6.0,49,0.00,,,0.00,Wunderground v.1.15,2013-08-24 15:47:00,
2013-08-24 11:53:00,73.6,53.8,30.27,ENE,58,6.0,9.0,50,0.00,,,0.00,Wunderground v.1.15,2013-08-24 15:53:00,
2013-08-24 11:59:00,73.6,54.4,30.26,NNW,333,7.0,10.0,51,0.00,,,0.00,Wunderground v.1.15,2013-08-24 15:59:00,
2013-08-24 12:05:00,73.9,53.5,30.27,ENE,60,6.0,10.0,49,0.00,,,0.00,Wunderground v.1.15,2013-08-24 16:05:00,
2013-08-24 12:11:00,74.1,53.2,30.27,NE,47,6.0,10.0,48,0.00,,,0.00,Wunderground v.1.15,2013-08-24 16:11:00,
2013-08-24 12:16:00,73.8,52.3,30.26,NE,56,6.0,10.0,47,0.00,,,0.00,Wunderground v.1.15,2013-08-24 16:16:00,
2013-08-24 12:21:00,74.0,53.1,30.27,North,5,6.0,10.0,48,0.00,,,0.00,Wunderground v.1.15,2013-08-24 16:21:00,
2013-08-24 12:27:00,73.9,53.0,30.26,NW,323,6.0,10.0,48,0.00,,,0.00,Wunderground v.1.15,2013-08-24 16:27:00,
2013-08-24 12:33:00,74.6,53.6,30.26,ENE,70,5.0,10.0,48,0.00,,,0.00,Wunderground v.1.15,2013-08-24 16:33:00,
2013-08-24 12:39:00,74.5,52.9,30.26,NE,49,6.0,11.0,47,0.00,,,0.00,Wunderground v.1.15,2013-08-24 16:39:00,
2013-08-24 12:45:00,74.7,53.1,30.26,NNE,12,7.0,10.0,47,0.00,,,0.00,Wunderground v.1.15,2013-08-24 16:45:00,
2013-08-24 12:51:00,74.9,52.7,30.26,North,351,5.0,10.0,46,0.00,,,0.00,Wunderground v.1.15,2013-08-24 16:51:00,
2013-08-24 12:57:00,75.3,54.3,30.26,NNE,32,4.0,10.0,48,0.00,,,0.00,Wunderground v.1.15,2013-08-24 16:57:00,
2013-08-24 13:03:00,75.5,54.4,30.26,ENE,72,5.0,10.0,48,0.00,,,0.00,Wunderground v.1.15,2013-08-24 17:03:00,
2013-08-24 13:08:00,75.2,53.6,30.26,WNW,285,6.0,10.0,47,0.00,,,0.00,Wunderground v.1.15,2013-08-24 17:08:00,
2013-08-24 13:13:00,75.2,53.6,30.26,SE,136,6.0,10.0,47,0.00,,,0.00,Wunderground v.1.15,2013-08-24 17:13:00,
2013-08-24 13:19:00,75.9,53.6,30.26,ENE,59,4.0,10.0,46,0.00,,,0.00,Wunderground v.1.15,2013-08-24 17:19:00,
2013-08-24 13:24:00,76.2,53.3,30.26,NE,51,4.0,10.0,45,0.00,,,0.00,Wunderground v.1.15,2013-08-24 17:24:00,
2013-08-24 13:30:00,76.1,53.8,30.26,NNE,30,5.0,5.0,46,0.00,,,0.00,Wunderground v.1.15,2013-08-24 17:30:00,
2013-08-24 13:35:00,76.2,55.6,30.26,NE,44,4.0,10.0,49,0.00,,,0.00,Wunderground v.1.15,2013-08-24 17:35:00,
2013-08-24 13:41:00,76.6,52.4,30.26,NNE,30,4.0,10.0,43,0.00,,,0.00,Wunderground v.1.15,2013-08-24 17:41:00,
2013-08-24 13:47:00,75.9,51.8,30.26,North,351,6.0,10.0,43,0.00,,,0.00,Wunderground v.1.15,2013-08-24 17:47:00,
2013-08-24 13:53:00,76.1,52.0,30.26,NNE,32,5.0,10.0,43,0.00,,,0.00,Wunderground v.1.15,2013-08-24 17:53:00,
2013-08-24 13:59:00,76.3,52.8,30.26,ENE,64,6.0,10.0,44,0.00,,,0.00,Wunderground v.1.15,2013-08-24 17:59:00,
2013-08-24 14:04:00,76.5,51.7,30.26,NNE,33,5.0,10.0,42,0.00,,,0.00,Wunderground v.1.15,2013-08-24 18:04:00,
2013-08-24 14:10:00,76.2,53.3,30.26,NE,47,5.0,10.0,45,0.00,,,0.00,Wunderground v.1.15,2013-08-24 18:10:00,
2013-08-24 14:16:00,76.3,52.2,30.26,East,79,5.0,10.0,43,0.00,,,0.00,Wunderground v.1.15,2013-08-24 18:16:00,
2013-08-24 14:22:00,77.2,53.0,30.26,NE,43,4.0,10.0,43,0.00,,,0.00,Wunderground v.1.15,2013-08-24 18:22:00,
2013-08-24 14:28:00,76.6,50.5,30.26,NE,49,4.0,10.0,40,0.00,,,0.00,Wunderground v.1.15,2013-08-24 18:28:00,
2013-08-24 14:34:00,76.6,50.5,30.26,ENE,57,5.0,10.0,40,0.00,,,0.00,Wunderground v.1.15,2013-08-24 18:34:00,
2013-08-24 14:40:00,76.8,50.0,30.26,ENE,77,5.0,5.0,39,0.00,,,0.00,Wunderground v.1.15,2013-08-24 18:40:00,
2013-08-24 14:46:00,77.2,49.6,30.26,ENE,65,4.0,10.0,38,0.00,,,0.00,Wunderground v.1.15,2013-08-24 18:46:00,
2013-08-24 14:52:00,77.3,50.4,30.26,NE,49,4.0,10.0,39,0.00,,,0.00,Wunderground v.1.15,2013-08-24 18:52:00,
2013-08-24 14:57:00,77.0,50.1,30.26,SE,124,4.0,10.0,39,0.00,,,0.00,Wunderground v.1.15,2013-08-24 18:57:00,
2013-08-24 15:03:00,77.0,48.7,30.26,NE,56,5.0,10.0,37,0.00,,,0.00,Wunderground v.1.15,2013-08-24 19:03:00,
2013-08-24 15:09:00,76.9,49.4,30.26,ENE,59,5.0,10.0,38,0.00,,,0.00,Wunderground v.1.15,2013-08-24 19:09:00,
2013-08-24 15:15:00,76.8,46.3,30.26,SE,134,5.0,10.0,34,0.00,,,0.00,Wunderground v.1.15,2013-08-24 19:15:00,
2013-08-24 15:20:00,76.7,46.2,30.26,NE,56,5.0,5.0,34,0.00,,,0.00,Wunderground v.1.15,2013-08-24 19:20:00,
2013-08-24 15:26:00,76.7,46.2,30.26,ENE,74,5.0,10.0,34,0.00,,,0.00,Wunderground v.1.15,2013-08-24 19:26:00,
2013-08-24 15:32:00,76.4,45.2,30.26,NE,38,6.0,10.0,33,0.00,,,0.00,Wunderground v.1.15,2013-08-24 19:32:00,
2013-08-24 15:38:00,77.0,44.9,30.26,NNE,18,5.0,10.0,32,0.00,,,0.00,Wunderground v.1.15,2013-08-24 19:38:00,
2013-08-24 15:44:00,77.0,47.2,30.26,ESE,108,4.0,10.0,35,0.00,,,0.00,Wunderground v.1.15,2013-08-24 19:44:00,
2013-08-24 15:50:00,78.0,47.4,30.26,ENE,64,2.0,10.0,34,0.00,,,0.00,Wunderground v.1.15,2013-08-24 19:50:00,
2013-08-24 15:55:00,77.4,47.6,30.26,NNW,336,3.0,10.0,35,0.00,,,0.00,Wunderground v.1.15,2013-08-24 19:55:00,
2013-08-24 16:01:00,77.0,45.7,30.26,NNE,23,5.0,10.0,33,0.00,,,0.00,Wunderground v.1.15,2013-08-24 20:01:00,
2013-08-24 16:07:00,77.0,46.5,30.26,NNE,23,4.0,10.0,34,0.00,,,0.00,Wunderground v.1.15,2013-08-24 20:07:00,
2013-08-24 16:13:00,77.1,45.8,30.26,WNW,288,3.0,10.0,33,0.00,,,0.00,Wunderground v.1.15,2013-08-24 20:13:00,
2013-08-24 16:18:00,77.1,45.0,30.26,NE,46,4.0,10.0,32,0.00,,,0.00,Wunderground v.1.15,2013-08-24 20:18:00,
2013-08-24 16:23:00,76.6,45.3,30.26,SE,143,5.0,10.0,33,0.00,,,0.00,Wunderground v.1.15,2013-08-24 20:23:00,
2013-08-24 16:28:00,76.4,44.4,30.26,NE,39,4.0,10.0,32,0.00,,,0.00,Wunderground v.1.15,2013-08-24 20:28:00,
2013-08-24 16:34:00,75.9,46.3,30.26,NNE,28,3.0,10.0,35,0.00,,,0.00,Wunderground v.1.15,2013-08-24 20:34:00,
2013-08-24 16:40:00,76.6,45.3,30.26,NE,53,2.0,10.0,33,0.00,,,0.00,Wunderground v.1.15,2013-08-24 20:40:00,
2013-08-24 16:46:00,76.7,46.2,30.26,North,351,3.0,10.0,34,0.00,,,0.00,Wunderground v.1.15,2013-08-24 20:46:00,
2013-08-24 16:51:00,76.7,46.2,30.26,East,83,4.0,10.0,34,0.00,,,0.00,Wunderground v.1.15,2013-08-24 20:51:00,
2013-08-24 16:56:00,76.8,46.3,30.26,SSE,165,3.0,10.0,34,0.00,,,0.00,Wunderground v.1.15,2013-08-24 20:56:00,
2013-08-24 17:01:00,77.2,46.7,30.26,ENE,59,2.0,10.0,34,0.00,,,0.00,Wunderground v.1.15,2013-08-24 21:01:00,
2013-08-24 17:06:00,77.3,46.7,30.26,ENE,60,2.0,10.0,34,0.00,,,0.00,Wunderground v.1.15,2013-08-24 21:06:00,
2013-08-24 17:12:00,77.1,47.3,30.26,NE,53,2.0,10.0,35,0.00,,,0.00,Wunderground v.1.15,2013-08-24 21:12:00,
2013-08-24 17:17:00,76.4,45.9,30.26,NNE,33,3.0,10.0,34,0.00,,,0.00,Wunderground v.1.15,2013-08-24 21:17:00,
2013-08-24 17:23:00,76.4,46.7,30.26,NE,51,3.0,10.0,35,0.00,,,0.00,Wunderground v.1.15,2013-08-24 21:23:00,
2013-08-24 17:29:00,76.7,46.2,30.26,ESE,120,2.0,10.0,34,0.00,,,0.00,Wunderground v.1.15,2013-08-24 21:29:00,
2013-08-24 17:35:00,76.6,49.1,30.26,SE,128,2.0,10.0,38,0.00,,,0.00,Wunderground v.1.15,2013-08-24 21:35:00,
2013-08-24 17:41:00,76.4,48.2,30.26,East,82,2.0,10.0,37,0.00,,,0.00,Wunderground v.1.15,2013-08-24 21:41:00,
2013-08-24 17:47:00,76.3,48.1,30.26,NE,49,2.0,10.0,37,0.00,,,0.00,Wunderground v.1.15,2013-08-24 21:47:00,
2013-08-24 17:53:00,76.2,48.0,30.26,East,94,2.0,10.0,37,0.00,,,0.00,Wunderground v.1.15,2013-08-24 21:53:00,
2013-08-24 17:59:00,76.4,48.2,30.26,ESE,116,1.0,10.0,37,0.00,,,0.00,Wunderground v.1.15,2013-08-24 21:59:00,
2013-08-24 18:05:00,76.1,50.7,30.26,ENE,76,1.0,10.0,41,0.00,,,0.00,Wunderground v.1.15,2013-08-24 22:05:00,
2013-08-24 18:11:00,75.8,49.8,30.26,ESE,118,1.0,10.0,40,0.00,,,0.00,Wunderground v.1.15,2013-08-24 22:11:00,
2013-08-24 18:17:00,75.4,51.3,30.26,ESE,117,1.0,10.0,43,0.00,,,0.00,Wunderground v.1.15,2013-08-24 22:17:00,
2013-08-24 18:23:00,75.2,51.2,30.26,ENE,76,1.0,10.0,43,0.00,,,0.00,Wunderground v.1.15,2013-08-24 22:23:00,
2013-08-24 18:29:00,74.5,52.9,30.26,ENE,59,0.0,10.0,47,0.00,,,0.00,Wunderground v.1.15,2013-08-24 22:29:00,
2013-08-24 18:35:00,73.3,54.1,30.26,ENE,65,0.0,10.0,51,0.00,,,0.00,Wunderground v.1.15,2013-08-24 22:35:00,
2013-08-24 18:40:00,72.3,54.7,30.26,ENE,77,0.0,10.0,54,0.00,,,0.00,Wunderground v.1.15,2013-08-24 22:40:00,
2013-08-24 18:45:00,71.2,55.2,30.26,ENE,77,0.0,10.0,57,0.00,,,0.00,Wunderground v.1.15,2013-08-24 22:45:00,
2013-08-24 18:51:00,69.7,55.2,30.26,ENE,76,0.0,10.0,60,0.00,,,0.00,Wunderground v.1.15,2013-08-24 22:51:00,
2013-08-24 18:57:00,68.1,55.0,30.26,NE,55,0.0,10.0,63,0.00,,,0.00,Wunderground v.1.15,2013-08-24 22:57:00,
2013-08-24 19:03:00,66.9,55.2,30.26,NE,56,0.0,10.0,66,0.00,,,0.00,Wunderground v.1.15,2013-08-24 23:03:00,
2013-08-24 19:09:00,66.0,55.5,30.26,NE,55,1.0,10.0,69,0.00,,,0.00,Wunderground v.1.15,2013-08-24 23:09:00,
2013-08-24 19:15:00,65.1,55.5,30.27,NE,56,1.0,10.0,71,0.00,,,0.00,Wunderground v.1.15,2013-08-24 23:15:00,
2013-08-24 19:21:00,64.2,55.7,30.27,NE,55,1.0,10.0,74,0.00,,,0.00,Wunderground v.1.15,2013-08-24 23:21:00,
2013-08-24 19:27:00,63.3,56.0,30.27,NE,55,1.0,10.0,77,0.00,,,0.00,Wunderground v.1.15,2013-08-24 23:27:00,
2013-08-24 19:33:00,62.5,55.9,30.27,NE,55,1.0,10.0,79,0.00,,,0.00,Wunderground v.1.15,2013-08-24 23:33:00,
2013-08-24 19:39:00,61.6,55.4,30.27,NE,56,0.0,10.0,80,0.00,,,0.00,Wunderground v.1.15,2013-08-24 23:39:00,
2013-08-24 19:45:00,60.7,54.8,30.27,NE,56,0.0,10.0,81,0.00,,,0.00,Wunderground v.1.15,2013-08-24 23:45:00,
2013-08-24 19:51:00,59.9,54.7,30.27,NE,55,0.0,10.0,83,0.00,,,0.00,Wunderground v.1.15,2013-08-24 23:51:00,
2013-08-24 19:56:00,59.4,54.2,30.28,NE,55,0.0,10.0,83,0.00,,,0.00,Wunderground v.1.15,2013-08-24 23:56:00,
2013-08-24 20:02:00,58.6,53.8,30.28,NE,56,0.0,10.0,84,0.00,,,0.00,Wunderground v.1.15,2013-08-25 00:02:00,
2013-08-24 20:07:00,58.1,53.6,30.28,NE,56,0.0,10.0,85,0.00,,,0.00,Wunderground v.1.15,2013-08-25 00:07:00,
2013-08-24 20:13:00,57.8,53.6,30.29,NE,53,1.0,10.0,86,0.00,,,0.00,Wunderground v.1.15,2013-08-25 00:13:00,
2013-08-24 20:19:00,57.5,53.3,30.29,NE,53,0.0,10.0,86,0.00,,,0.00,Wunderground v.1.15,2013-08-25 00:19:00,
2013-08-24 20:24:00,57.1,53.3,30.30,NNE,33,0.0,10.0,87,0.00,,,0.00,Wunderground v.1.15,2013-08-25 00:24:00,
2013-08-24 20:29:00,56.9,53.1,30.30,NNE,33,0.0,10.0,87,0.00,,,0.00,Wunderground v.1.15,2013-08-25 00:29:00,
2013-08-24 20:34:00,56.7,52.9,30.30,NNE,33,0.0,10.0,87,0.00,,,0.00,Wunderground v.1.15,2013-08-25 00:34:00,
2013-08-24 20:40:00,56.4,52.6,30.30,NNE,33,0.0,10.0,87,0.00,,,0.00,Wunderground v.1.15,2013-08-25 00:40:00,
2013-08-24 20:46:00,56.0,52.2,30.31,NNE,33,0.0,10.0,87,0.00,,,0.00,Wunderground v.1.15,2013-08-25 00:46:00,
2013-08-24 20:52:00,55.7,52.2,30.31,NNE,33,0.0,10.0,88,0.00,,,0.00,Wunderground v.1.15,2013-08-25 00:52:00,
2013-08-24 20:58:00,55.5,52.3,30.31,NNE,33,0.0,10.0,89,0.00,,,0.00,Wunderground v.1.15,2013-08-25 00:58:00,
2013-08-24 21:03:00,55.3,52.1,30.31,NNE,27,0.0,10.0,89,0.00,,,0.00,Wunderground v.1.15,2013-08-25 01:03:00,
2013-08-24 21:08:00,55.0,52.1,30.31,NNE,27,0.0,10.0,90,0.00,,,0.00,Wunderground v.1.15,2013-08-25 01:08:00,
2013-08-24 21:26:00,54.4,52.1,30.31,NNE,27,0.0,0.0,92,0.00,,,0.00,Wunderground v.1.15,2013-08-25 01:26:00,
2013-08-24 21:32:00,54.2,51.9,30.31,NNE,28,0.0,0.0,92,0.00,,,0.00,Wunderground v.1.15,2013-08-25 01:32:00,
2013-08-24 21:38:00,54.1,51.8,30.31,NNE,27,0.0,0.0,92,0.00,,,0.00,Wunderground v.1.15,2013-08-25 01:38:00,
2013-08-24 21:43:00,54.0,52.0,30.31,NNE,28,0.0,0.0,93,0.00,,,0.00,Wunderground v.1.15,2013-08-25 01:43:00,
2013-08-24 21:49:00,53.8,51.8,30.31,NNE,29,0.0,0.0,93,0.00,,,0.00,Wunderground v.1.15,2013-08-25 01:49:00,
2013-08-24 21:55:00,53.5,51.5,30.32,NNE,28,0.0,0.0,93,0.00,,,0.00,Wunderground v.1.15,2013-08-25 01:55:00,
2013-08-24 22:00:00,53.3,51.3,30.32,NNE,29,0.0,0.0,93,0.00,,,0.00,Wunderground v.1.15,2013-08-25 02:00:00,
2013-08-24 22:06:00,53.1,51.4,30.32,NNE,29,0.0,0.0,94,0.00,,,0.00,Wunderground v.1.15,2013-08-25 02:06:00,
2013-08-24 22:12:00,52.9,51.2,30.32,NNE,27,0.0,0.0,94,0.00,,,0.00,Wunderground v.1.15,2013-08-25 02:12:00,
2013-08-24 22:17:00,52.9,51.2,30.32,NNE,28,0.0,0.0,94,0.00,,,0.00,Wunderground v.1.15,2013-08-25 02:17:00,
2013-08-24 22:23:00,52.8,51.4,30.32,NNE,28,0.0,0.0,95,0.00,,,0.00,Wunderground v.1.15,2013-08-25 02:23:00,
2013-08-24 22:29:00,52.6,50.9,30.32,NNE,28,0.0,0.0,94,0.00,,,0.00,Wunderground v.1.15,2013-08-25 02:29:00,
2013-08-24 22:35:00,52.4,51.0,30.32,NNE,28,0.0,0.0,95,0.00,,,0.00,Wunderground v.1.15,2013-08-25 02:35:00,
2013-08-24 22:41:00,52.1,50.7,30.32,NNE,29,0.0,0.0,95,0.00,,,0.00,Wunderground v.1.15,2013-08-25 02:41:00,
2013-08-24 22:47:00,52.1,50.7,30.32,NNE,27,0.0,0.0,95,0.00,,,0.00,Wunderground v.1.15,2013-08-25 02:47:00,
2013-08-24 22:53:00,51.8,50.4,30.32,NNE,28,0.0,0.0,95,0.00,,,0.00,Wunderground v.1.15,2013-08-25 02:53:00,
2013-08-24 22:58:00,51.4,50.0,30.32,NNE,28,0.0,0.0,95,0.00,,,0.00,Wunderground v.1.15,2013-08-25 02:58:00,
2013-08-24 23:03:00,51.3,49.9,30.32,NNE,28,0.0,0.0,95,0.00,,,0.00,Wunderground v.1.15,2013-08-25 03:03:00,
2013-08-24 23:08:00,51.1,49.7,30.32,NNE,29,0.0,0.0,95,0.00,,,0.00,Wunderground v.1.15,2013-08-25 03:08:00,
2013-08-24 23:14:00,50.9,49.5,30.32,NNE,27,0.0,0.0,95,0.00,,,0.00,Wunderground v.1.15,2013-08-25 03:14:00,
2013-08-24 23:19:00,50.7,49.3,30.32,NNE,27,0.0,0.0,95,0.00,,,0.00,Wunderground v.1.15,2013-08-25 03:19:00,
2013-08-24 23:25:00,50.8,49.7,30.33,NNE,29,0.0,0.0,96,0.00,,,0.00,Wunderground v.1.15,2013-08-25 03:25:00,
2013-08-24 23:31:00,50.8,49.7,30.33,NNE,28,0.0,0.0,96,0.00,,,0.00,Wunderground v.1.15,2013-08-25 03:31:00,
2013-08-24 23:37:00,50.4,49.3,30.33,NNE,29,0.0,0.0,96,0.00,,,0.00,Wunderground v.1.15,2013-08-25 03:37:00,
2013-08-24 23:43:00,50.1,49.0,30.33,NNE,28,0.0,0.0,96,0.00,,,0.00,Wunderground v.1.15,2013-08-25 03:43:00,
2013-08-24 23:49:00,50.2,49.1,30.33,NNE,29,0.0,0.0,96,0.00,,,0.00,Wunderground v.1.15,2013-08-25 03:49:00,
2013-08-24 23:54:00,50.2,49.1,30.33,NNE,29,0.0,0.0,96,0.00,,,0.00,Wunderground v.1.15,2013-08-25 03:54:00,